Regional Weather Roundup
Issued by NWS

Home | Current Version | Previous Version | Text Only | Print | Product List | Glossary On
Versions: 1 2 3 4 5 6 7 8 9 10 11 12 13 14 15 16 17 18 19 20 21 22 23 24 25 26 27 28 29 30 31 32 33 34 35 36 37 38 39 40 41 42 43 44 45 46 47 48 49 50
000
ASUS43 KMPX 280801
RWRMN
WEATHER ROUNDUP FOR MINNESOTA
NATIONAL WEATHER SERVICE TWIN CITIES/CHANHASSEN MN
200 AM CST SUN DEC 28 2014


NOTE: "FAIR" INDICATES FEW OR NO CLOUDS BELOW 12,000 FEET WITH NO
SIGNIFICANT WEATHER AND/OR OBSTRUCTIONS TO VISIBILITY. N/A MEANS
CURRENT SKY AND/OR WEATHER CONDITIONS ARE NOT AVAILABLE.

MNZ060>063-068>070-280900-
   Twin Cities Metro

CITY           SKY/WX    TMP DP  RH WIND       PRES   REMARKS
TWIN CITIES    CLOUDY    12   7  80 VRB6      30.09S WCI   3
ST PAUL        CLOUDY    13   8  81 VRB3      30.10F
CRYSTAL        CLOUDY    14   9  80 SW6       30.07S WCI   5
BLAINE         CLOUDY    16  12  86 SW8       30.06S WCI   5
LAKEVILLE      PTCLDY     9   7  92 W3        30.09R
EDEN PRAIRIE   MOCLDY    10   5  80 SW7       30.08S WCI  -1
SOUTH ST PAUL  CLOUDY    14   9  81 CALM      30.10R
LAKE ELMO      CLOUDY    14  10  85 S5        30.08S WCI   6
$$
MNZ001>005-007-008-013>017-022>024-027-028-280900-
   Northwest Minnesota

CITY           SKY/WX    TMP DP  RH WIND       PRES   REMARKS
BEMIDJI        FLURRIES  13   9  83 N10       30.01S WCI   0
HALLOCK        CLEAR     -4 -11  71 N15       30.17R WCI -25
ROSEAU         CLEAR     -2  -8  78 NW5       30.11R WCI -12
WARROAD        CLOUDY     0  -6  78 NW5       30.09S WCI -10
THIEF RVR FALL CLOUDY     3  -2  78 N17       30.10R WCI -17
CROOKSTON      MOCLDY     7   1  78 N12       30.14R WCI  -9
FOSSTON        FLURRIES   9   5  85 N15       30.06R WCI  -8
DETROIT LAKES  CLOUDY    21  19  93 N6        30.02R WCI  14
MOORHEAD       MIX PCPN  16  16 100 N17       30.08R WCI   0
PARK RAPIDS    CLOUDY    21  17  84 NW5       29.99S WCI  15
MAHNOMEN       FLURRIES  15  12  87 N14       30.03R WCI   0
$$
MNZ006-009>011-018-025>026-280900-
   North Central Minnesota

CITY           SKY/WX    TMP DP  RH WIND       PRES   REMARKS
BAUDETTE       CLOUDY    -1  -7  75 NW15      30.07R WCI -21
FLAG ISLAND    CLOUDY     0  -8  71 NW18      30.08R WCI -22
INTL FALLS     CLEAR      2  -3  80 NW10      30.03R WCI -14
WASKISH        CLOUDY     5   1  85 N5        30.06R WCI  -4
BIG FORK       LGT SNOW  14   9  79 NW5       30.00R WCI   6
LONGVILLE      FLURRIES  18  16  93 NW5       30.00S WCI  11
GRAND RAPIDS   CLOUDY    16  10  79 NW10      29.98S WCI   3
CRANE LAKE     CLOUDY     9   3  78 NW7       30.02R WCI  -3
ORR            CLOUDY    10   3  72 NW9       29.96R WCI  -2
COOK           FLURRIES  12   9  85 W7        29.98S WCI   2
WALKER         FLURRIES  17  12  84 N3        30.00S
$$
MNZ012-019>021-037-280900-
   Northeast Minnesota

CITY           SKY/WX    TMP DP  RH WIND       PRES   REMARKS
DULUTH         FLURRIES  18  12  77 W8        29.96S WCI   8
ELY            FLURRIES  12   9  85 W6        29.95S WCI   3
HIBBING        CLOUDY    17   9  70 NW10      29.98R WCI   5
EVELETH        LGT SNOW  18  12  79 NW8       29.98S WCI   7
DULUTH HARBOR  CLOUDY    21  16  79 CALM      30.04R
TWO HARBORS    CLOUDY    19  12  73 W3        29.96S
SILVER BAY     CLOUDY    18  10  73 W3        29.95S
GRAND MARAIS     N/A     18   9  68 VRB6      29.98S WCI  10
G MARAIS ARPRT CLOUDY     9   3  78 W10G16    29.87S WCI  -6
$$
MNZ029>031-032-039>041-046>048-054>057-064-280900-
   West Central Minnesota

CITY           SKY/WX    TMP DP  RH WIND       PRES   REMARKS
FERGUS FALLS   MOCLDY    16  16 100 W3        30.06S
WHEATON        CLEAR     16  14  93 W8        30.07R WCI   5
MORRIS         CLEAR     12  10  92 W3        30.03F
ALEXANDRIA     PTCLDY    15  12  88 SW7       30.01S WCI   5
ELBOW LAKE     FAIR      15  13  93 W5        30.03S WCI   7
WADENA         CLOUDY    21  18  86 CALM      30.00S
GLENWOOD       CLEAR     12  10  92 SW6       30.03R WCI   3
APPLETON       CLEAR     14  10  85 SW6       30.06R WCI   5
BENSON         CLEAR     12  10  92 CALM      30.05S
ORTONVILLE     CLEAR     16  10  79 W8        30.05S WCI   5
MADISON        CLEAR     16  14  93 W5        30.07R WCI   9
WILLMAR        FAIR      12   9  85 CALM      30.06S
$$
MNZ033>034-036-042>043-049>051-058-059-280900-
   Central Minnesota

CITY           SKY/WX    TMP DP  RH WIND       PRES   REMARKS
ST CLOUD       PTCLDY    17  11  77 CALM      30.04S
SAUK CENTRE    FAIR      11   9  91 SW6       30.03S WCI   2
PAYNESVILLE    PTCLDY    11  10  96 S3        30.05R
AITKIN         FLURRIES  25  18  74 CALM      29.99S
PINE RIVER     CLOUDY    19  18  93 NW3       30.03S
BRAINERD       CLOUDY    19  16  88 SW5       30.01S WCI  12
STAPLES        CLOUDY    19  18  93 W5        30.01R WCI  13
LONG PRAIRIE   MOCLDY    16  14  93 SW3       30.02S
LITTLE FALLS   CLOUDY    18  14  86 CALM      30.03S
LITCHFIELD     PTCLDY    12  10  92 CALM      30.05F
BUFFALO        PTCLDY    12   8  85 CALM      30.08S
MAPLE LAKE     PTCLDY    15  13  91 S3        30.07R
$$
MNZ037-044-045-052-053-280900-
   East Central Minnesota

CITY           SKY/WX    TMP DP  RH WIND       PRES   REMARKS
PRINCETON      MOCLDY    16  12  86 CALM      30.04S
MORA           PTCLDY    16  12  86 CALM      30.05S
CAMBRIDGE      MOCLDY    14   7  73 CALM      30.04S
RUSH CITY      MOCLDY    12   9  85 CALM      30.06S
MOOSE LAKE     FLURRIES  19  14  79 SW3       29.99S
HINCKLEY       CLOUDY    19  18  93 CALM      30.03S
CLOQUET        FLURRIES  19  14  79 W5        29.98S WCI  13
MCGREGOR       CLOUDY    23  19  86 W3        30.00S
$$
MNZ071>073-080-081-089-090-097-098-280900-
   Southwest Minnesota

CITY           SKY/WX    TMP DP  RH WIND       PRES   REMARKS
MONTEVIDEO     CLEAR     14  12  92 W6        30.07S WCI   5
GRANITE FALLS  MOCLDY    12   9  87 S7        30.08R WCI   1
CANBY          CLEAR     18  13  82 W16       30.06R WCI   3
MARSHALL       FAIR      16   9  73 W10       30.05S WCI   3
REDWOOD FALLS  CLEAR      9   5  84 SW9       30.07F WCI  -4
OLIVIA         CLEAR     10   9  92 SW5       30.06S WCI   2
PIPESTONE      PTCLDY     7   5  92 SW3       30.04S
WINDOM           N/A      9   7  92 CALM      30.07F
WORTHINGTON    CLEAR     12 -29  14 SW13      30.06F WCI  -3
JACKSON        CLEAR     12   9  85 CALM      30.08S
TRACY          CLEAR     13  10  89 SW12      30.06S WCI  -1
SLAYTON        PTCLDY    12  10  91 W12       30.05S WCI  -2
$$
MNZ065>067-074>077-082>085-091>093-280900-
   South Central Minnesota

CITY           SKY/WX    TMP DP  RH WIND       PRES   REMARKS
MANKATO        CLEAR      9   3  78 S7        30.09F WCI  -3
NEW ULM        CLEAR      7   3  85 CALM      30.09S
ST JAMES       CLEAR     12   9  85 S6        30.10F WCI   3
FAIRMONT       CLEAR     10   5  79 SW6       30.09F WCI   1
GLENCOE        PTCLDY     6   5  93 SW5       30.07F WCI  -2
FARIBAULT      CLEAR      7   3  85 S6        30.10S WCI  -3
OWATONNA       CLEAR      9   3  78 SW8       30.10R WCI  -4
ALBERT LEA     CLEAR     12  10  92 CALM      30.10S
$$
MNZ078>079-086>088-094>096-280900-
   Southeast Minnesota

CITY           SKY/WX    TMP DP  RH WIND       PRES   REMARKS
ROCHESTER      CLEAR      6   3  87 SW7       30.09F WCI  -6
RED WING       CLEAR      3   0  85 CALM      30.11R
STANTON        CLEAR     10   5  82 S7        30.08F WCI  -2
DODGE CENTER   PTCLDY     9   7  92 SW10      30.07F WCI  -6
WINONA         PTCLDY    10   9  92 CALM      30.15S
AUSTIN         PTCLDY     9   5  85 S3        30.10F
PRESTON        CLEAR     10   6  87 W7        30.11S WCI  -2
$$
ABBREVIATIONS USED IN REMARKS
   TC - TEMPERATURES IN CELSIUS
  WCI - WIND CHILL INDEX
   HX - HEAT INDEX
  VSB - VISIBILITY
$$



USA.gov is the U.S. government's official web portal to all federal, state and local government web resources and services.